FW8685 Weather Reports


time (UTC)temp
C
wind
direction
speed
KPH
gust
KPH
rain 1hr
cm
rain 24hr
cm
rain mn
cm
humidity
%
barometer
mb
20260831182025 38 125 16.1 32.2 0.00 0.00 0.00 31 1012.1
20260831181557 39 107 16.1 29.0 0.00 0.00 0.00 33 1012.2
20260831181024 38 123 16.1 35.4 0.00 0.00 0.00 34 1012.3
20260831180525 38 101 17.7 37.0 0.00 0.00 0.00 35 1012.4
20260831180046 38 123 17.7 37.0 0.00 0.00 0.00 34 1012.4
20260831175524 37 183 14.5 33.8 0.00 0.00 0.00 35 1012.5
20260831175024 38 160 16.1 33.8 0.00 0.00 0.00 34 1012.7
20260831174548 38 135 19.3 30.6 0.00 0.00 0.00 35 1012.7
20260831174024 37 155 14.5 33.8 0.00 0.00 0.00 36 1012.8
20260831173525 37 163 14.5 35.4 0.00 0.00 0.00 36 1012.9
20260831173047 37 113 17.7 35.4 0.00 0.00 0.00 35 1012.9
20260831172524 37 123 17.7 32.2 0.00 0.00 0.00 37 1013.0
20260831172025 36 108 12.9 32.2 0.00 0.00 0.00 38 1013.0
20260831171544 36 121 17.7 32.2 0.00 0.00 0.00 37 1013.1
20260831171025 36 123 14.5 29.0 0.00 0.00 0.00 37 1013.0
20260831170524 36 150 20.9 29.0 0.00 0.00 0.00 37 1013.2
20260831170043 36 140 12.9 27.4 0.00 0.00 0.00 38 1013.1
20260831165525 36 113 14.5 32.2 0.00 0.00 0.00 39 1013.2
20260831165025 36 170 17.7 32.2 0.00 0.00 0.00 38 1013.2
20260831164605 35 138 17.7 32.2 0.00 0.00 0.00 38 1013.2
20260831164024 35 132 17.7 33.8 0.00 0.00 0.00 39 1013.2
20260831163525 35 111 19.3 33.8 0.00 0.00 0.00 39 1013.2
20260831163048 35 123 14.5 30.6 0.00 0.00 0.00 40 1013.3
20260831162523 35 139 20.9 30.6 0.00 0.00 0.00 40 1013.3
20260831162024 35 113 14.5 29.0 0.00 0.00 0.00 40 1013.3
20260831161600 35 165 12.9 29.0 0.00 0.00 0.00 40 1013.4
20260831161023 35 138 17.7 29.0 0.00 0.00 0.00 41 1013.4
20260831160526 35 126 17.7 27.4 0.00 0.00 0.00 41 1013.5
20260831160056 34 121 16.1 27.4 0.00 0.00 0.00 41 1013.5
20260831155524 34 130 17.7 27.4 0.00 0.00 0.00 42 1013.4
20260831155026 34 119 12.9 27.4 0.00 0.00 0.00 42 1013.5
20260831154613 33 126 12.9 29.0 0.00 0.00 0.00 43 1013.4
20260831154029 33 116 17.7 29.0 0.00 0.00 0.00 42 1013.4
20260831153525 33 140 12.9 29.0 0.00 0.00 0.00 43 1013.3
20260831153046 33 123 14.5 29.0 0.00 0.00 0.00 43 1013.3
20260831152528 33 167 16.1 27.4 0.00 0.00 0.00 43 1013.4
20260831152025 33 154 9.7 24.1 0.00 0.00 0.00 44 1013.4
20260831151546 33 132 12.9 24.1 0.00 0.00 0.00 44 1013.3
20260831151025 32 128 12.9 24.1 0.00 0.00 0.00 45 1013.4
20260831150524 32 132 11.3 27.4 0.00 0.00 0.00 45 1013.4
20260831150050 32 145 11.3 27.4 0.00 0.00 0.00 46 1013.4
20260831145524 32 131 12.9 25.7 0.00 0.00 0.00 46 1013.3
20260831145024 31 164 9.7 25.7 0.00 0.00 0.00 47 1013.3
20260831144544 31 143 12.9 24.1 0.00 0.00 0.00 48 1013.4
20260831144024 31 139 14.5 24.1 0.00 0.00 0.00 48 1013.4
20260831143523 30 127 9.7 19.3 0.00 0.00 0.00 50 1013.4
20260831143044 30 125 11.3 17.7 0.00 0.00 0.00 50 1013.4
20260831142527 30 149 9.7 17.7 0.00 0.00 0.00 51 1013.4
20260831142025 29 161 9.7 17.7 0.00 0.00 0.00 52 1013.4
20260831141550 29 150 8.0 19.3 0.00 0.00 0.00 53 1013.4
20260831141024 28 115 12.9 19.3 0.00 0.00 0.00 54 1013.2
20260831140525 28 120 11.3 19.3 0.00 0.00 0.00 55 1013.3
20260831140045 28 134 11.3 20.9 0.00 0.00 0.00 56 1013.3
20260831135525 27 136 14.5 20.9 0.00 0.00 0.00 57 1013.3
20260831135028 27 125 9.7 16.1 0.00 0.00 0.00 58 1013.3
20260831134548 26 117 11.3 20.9 0.00 0.00 0.00 60 1013.4
20260831134025 26 120 11.3 25.7 0.00 0.00 0.00 61 1013.3
20260831133522 26 107 16.1 25.7 0.00 0.00 0.00 61 1013.3
20260831133047 25 112 16.1 20.9 0.00 0.00 0.00 62 1013.2
20260831132524 25 103 11.3 19.3 0.00 0.00 0.00 63 1013.1
20260831132025 25 111 12.9 19.3 0.00 0.00 0.00 64 1013.2
20260831131557 24 105 9.7 16.1 0.00 0.00 0.00 65 1013.2
20260831131025 24 119 9.7 16.1 0.00 0.00 0.00 66 1013.2
20260831130525 23 124 11.3 17.7 0.00 0.00 0.00 67 1013.0
20260831130047 23 117 11.3 17.7 0.00 0.00 0.00 69 1013.1
20260831125527 23 111 9.7 16.1 0.00 0.00 0.00 70 1013.0
20260831125025 22 111 11.3 16.1 0.00 0.00 0.00 72 1012.9
20260831124545 22 111 11.3 16.1 0.00 0.00 0.00 73 1012.8
20260831124023 22 98 9.7 14.5 0.00 0.00 0.00 74 1012.7
20260831123526 21 114 6.4 11.3 0.00 0.00 0.00 74 1012.7
20260831123046 21 107 4.8 11.3 0.00 0.00 0.00 74 1012.7
20260831122529 21 97 6.4 9.7 0.00 0.00 0.00 73 1012.8
20260831122024 21 116 4.8 9.7 0.00 0.00 0.00 73 1012.8
20260831121550 21 125 4.8 9.7 0.00 0.00 0.00 73 1012.8
20260831121029 21 107 4.8 6.4 0.00 0.00 0.00 73 1012.8
20260831120528 21 104 3.2 6.4 0.00 0.00 0.00 73 1012.9
20260831120048 21 103 3.2 6.4 0.00 0.00 0.00 73 1012.8
20260831115526 22 98 3.2 9.7 0.00 0.00 0.00 73 1012.7
20260831115024 22 93 4.8 9.7 0.00 0.00 0.00 73 1012.7
20260831114547 22 92 1.6 6.4 0.00 0.00 0.00 72 1012.6
20260831114025 22 0 0.0 0.0 0.00 0.00 0.00 71 1012.7
20260831113524 22 0 0.0 0.0 0.00 0.00 0.00 71 1012.5
20260831113049 22 0 0.0 1.6 0.00 0.00 0.00 70 1012.5
20260831112526 22 0 0.0 3.2 0.00 0.00 0.00 70 1012.3
20260831112024 22 109 0.0 4.8 0.00 0.00 0.00 70 1012.4
20260831111551 22 109 1.6 4.8 0.00 0.00 0.00 70 1012.3
20260831111024 22 109 1.6 4.8 0.00 0.00 0.00 69 1012.3
20260831110524 22 109 3.2 4.8 0.00 0.00 0.00 69 1012.2
20260831110046 22 109 1.6 6.4 0.00 0.00 0.00 68 1012.2
20260831105525 22 109 3.2 6.4 0.00 0.00 0.00 68 1012.0
20260831105026 22 110 3.2 6.4 0.00 0.00 0.00 67 1012.0
20260831104551 22 119 3.2 6.4 0.00 0.00 0.00 67 1012.0
20260831104026 23 113 4.8 9.7 0.00 0.00 0.00 67 1011.8
20260831103524 23 123 3.2 9.7 0.00 0.00 0.00 66 1011.8
20260831103050 23 105 4.8 9.7 0.00 0.00 0.00 66 1011.7
20260831102524 23 111 4.8 6.4 0.00 0.00 0.00 65 1011.7
20260831102025 23 109 3.2 6.4 0.00 0.00 0.00 65 1011.8
20260831101546 23 105 3.2 6.4 0.00 0.00 0.00 65 1011.7
20260831101023 23 107 3.2 6.4 0.00 0.00 0.00 65 1011.7
20260831100525 23 108 3.2 6.4 0.00 0.00 0.00 64 1011.7
20260831100100 23 106 4.8 6.4 0.00 0.00 0.00 64 1011.7
20260831095525 24 109 4.8 6.4 0.00 0.00 0.00 63 1011.4
20260831095026 24 115 4.8 9.7 0.00 0.00 0.00 63 1011.3
20260831094548 24 116 4.8 9.7 0.00 0.00 0.00 62 1011.3
20260831094024 24 117 4.8 9.7 0.00 0.00 0.00 62 1011.5
20260831093525 25 108 6.4 9.7 0.00 0.00 0.00 62 1011.3
20260831093056 25 112 4.8 9.7 0.00 0.00 0.00 61 1011.2
20260831092523 25 115 4.8 8.0 0.00 0.00 0.00 61 1011.2
20260831092022 25 145 4.8 11.3 0.00 0.00 0.00 61 1011.3
20260831091541 25 138 4.8 11.3 0.00 0.00 0.00 60 1011.1
20260831091029 25 122 3.2 11.3 0.00 0.00 0.00 60 1011.0
20260831090523 25 126 4.8 12.9 0.00 0.00 0.00 60 1011.0
20260831090056 25 125 4.8 12.9 0.00 0.00 0.00 60 1011.2
20260831085525 25 126 6.4 12.9 0.00 0.00 0.00 59 1011.0
20260831085024 25 110 6.4 12.9 0.00 0.00 0.00 59 1010.8
20260831084545 25 130 4.8 14.5 0.00 0.00 0.00 59 1010.8
20260831084025 25 122 8.0 14.5 0.00 0.00 0.00 59 1010.9
20260831083525 26 135 8.0 14.5 0.00 0.00 0.00 59 1010.7
20260831083102 26 149 8.0 14.5 0.00 0.00 0.00 58 1010.7
20260831082525 26 108 8.0 16.1 0.00 0.00 0.00 58 1010.5
20260831082025 26 127 8.0 16.1 0.00 0.00 0.00 58 1010.7
20260831081555 26 134 8.0 14.5 0.00 0.00 0.00 58 1010.7
20260831081027 26 121 9.7 14.5 0.00 0.00 0.00 57 1010.6
20260831080525 26 130 9.7 19.3 0.00 0.00 0.00 57 1010.6
20260831080120 26 114 9.7 19.3 0.00 0.00 0.00 57 1010.5
20260831075528 26 111 9.7 19.3 0.00 0.00 0.00 56 1010.7
20260831075026 26 120 9.7 16.1 0.00 0.00 0.00 56 1010.7
20260831074547 27 113 9.7 16.1 0.00 0.00 0.00 56 1010.8
20260831074024 27 121 9.7 14.5 0.00 0.00 0.00 55 1010.8
20260831073524 27 110 9.7 19.3 0.00 0.00 0.00 55 1010.8
20260831073045 27 103 9.7 19.3 0.00 0.00 0.00 54 1010.8
20260831072527 27 125 11.3 19.3 0.00 0.00 0.00 54 1010.9
20260831072025 27 117 11.3 19.3 0.00 0.00 0.00 54 1010.8
20260831071548 27 137 8.0 19.3 0.00 0.00 0.00 54 1011.0
20260831071025 27 140 8.0 17.7 0.00 0.00 0.00 53 1010.9
20260831070524 27 144 8.0 17.7 0.00 0.00 0.00 53 1010.8
20260831070048 27 124 9.7 20.9 0.00 0.00 0.00 53 1010.9
20260831065526 28 123 11.3 20.9 0.00 0.00 0.00 52 1010.9
20260831065025 28 141 11.3 22.5 0.00 0.00 0.00 52 1010.9
20260831064544 28 113 11.3 22.5 0.00 0.00 0.00 52 1010.8
20260831064025 28 126 14.5 24.1 0.00 0.00 0.00 52 1010.8
20260831063525 28 118 14.5 24.1 0.00 0.00 0.00 52 1010.7
20260831063106 28 134 12.9 25.7 0.00 0.00 0.00 52 1010.6
20260831062524 28 141 14.5 27.4 0.00 0.00 0.00 51 1010.4
20260831062024 28 134 16.1 27.4 0.00 0.00 0.00 51 1010.3
20260831061547 28 113 14.5 25.7 0.00 0.00 0.00 51 1010.4
20260831061027 28 119 16.1 32.2 0.00 0.00 0.00 51 1010.4
20260831060524 28 113 16.1 32.2 0.00 0.00 0.00 50 1010.3
20260831060048 28 119 17.7 30.6 0.00 0.00 0.00 50 1010.3
20260831055524 28 126 16.1 30.6 0.00 0.00 0.00 50 1010.2
20260831055025 28 111 17.7 30.6 0.00 0.00 0.00 50 1010.2
20260831054543 28 128 16.1 32.2 0.00 0.00 0.00 50 1010.0
20260831054025 28 109 14.5 32.2 0.00 0.00 0.00 50 1009.8
20260831053525 28 140 12.9 27.4 0.00 0.00 0.00 50 1009.7
20260831053122 28 122 17.7 25.7 0.00 0.00 0.00 50 1009.6
20260831052524 28 113 14.5 25.7 0.00 0.00 0.00 50 1009.6
20260831052027 28 109 16.1 27.4 0.00 0.00 0.00 50 1009.6
20260831051545 28 113 17.7 27.4 0.00 0.00 0.00 50 1009.6
20260831051023 28 100 16.1 27.4 0.00 0.00 0.00 50 1009.6
20260831050523 28 110 16.1 25.7 0.00 0.00 0.00 49 1009.5
20260831050051 28 115 16.1 24.1 0.00 0.00 0.00 49 1009.5
20260831045525 28 107 17.7 24.1 0.00 0.00 0.00 49 1009.3
20260831045028 28 111 17.7 24.1 0.00 0.00 0.00 49 1009.3
20260831044636 28 114 17.7 24.1 0.00 0.00 0.00 49 1009.3
20260831044026 28 112 17.7 24.1 0.00 0.00 0.00 49 1009.3
20260831043524 28 104 16.1 25.7 0.00 0.00 0.00 49 1009.4
20260831043045 28 105 16.1 27.4 0.00 0.00 0.00 49 1009.3
20260831042524 28 103 16.1 27.4 0.00 0.00 0.00 49 1009.4
20260831042024 28 101 16.1 29.0 0.00 0.00 0.00 48 1009.5
20260831041557 29 94 19.3 29.0 0.00 0.00 0.00 48 1009.5
20260831041024 29 105 17.7 24.1 0.00 0.00 0.00 48 1009.6
20260831040525 29 115 16.1 24.1 0.00 0.00 0.00 48 1009.6
20260831040050 29 97 14.5 22.5 0.00 0.00 0.00 48 1009.6
20260831035524 29 99 14.5 22.5 0.00 0.00 0.00 48 1009.6
20260831035024 29 109 14.5 20.9 0.00 0.00 0.00 48 1009.6
20260831034545 29 119 12.9 19.3 0.00 0.00 0.00 48 1009.6
20260831034027 30 101 14.5 19.3 0.00 0.00 0.00 47 1009.5
20260831033525 30 104 12.9 19.3 0.00 0.00 0.00 47 1009.6
20260831033054 30 102 12.9 19.3 0.00 0.00 0.00 47 1009.6
20260831032525 30 108 11.3 20.9 0.00 0.00 0.00 47 1009.6
20260831032029 30 98 12.9 20.9 0.00 0.00 0.00 47 1009.6
20260831031549 30 108 14.5 22.5 0.00 0.00 0.00 47 1009.5
20260831031024 30 109 14.5 25.7 0.00 0.00 0.00 47 1009.6
20260831030527 30 103 14.5 25.7 0.00 0.00 0.00 46 1009.5
20260831030049 30 98 16.1 22.5 0.00 0.00 0.00 46 1009.4
20260831025525 30 96 14.5 19.3 0.00 0.00 0.00 46 1009.5
20260831025025 30 101 12.9 20.9 0.00 0.00 0.00 46 1009.4
20260831024545 31 105 12.9 22.5 0.00 0.00 0.00 45 1009.4
20260831024024 31 100 14.5 22.5 0.00 0.00 0.00 45 1009.4
20260831023522 31 108 14.5 20.9 0.00 0.00 0.00 45 1009.3
20260831023041 31 100 12.9 22.5 0.00 0.00 0.00 45 1009.3
20260831022525 31 108 14.5 22.5 0.00 0.00 0.00 45 1009.3
20260831022027 31 101 12.9 20.9 0.00 0.00 0.00 45 1009.2
20260831021547 31 109 14.5 20.9 0.00 0.00 0.00 44 1009.1
20260831021025 31 109 14.5 20.9 0.00 0.00 0.00 44 1009.1
20260831020524 31 104 14.5 20.9 0.00 0.00 0.00 44 1008.8
20260831020045 31 126 11.3 19.3 0.00 0.00 0.00 44 1008.8
20260831015525 31 113 12.9 20.9 0.00 0.00 0.00 43 1008.7
20260831015021 32 103 11.3 20.9 0.00 0.00 0.00 42 1008.6
20260831014550 32 107 9.7 17.7 0.00 0.00 0.00 42 1008.5
20260831014024 32 93 9.7 17.7 0.00 0.00 0.00 41 1008.6
20260831013526 32 103 12.9 17.7 0.00 0.00 0.00 40 1008.3
20260831013046 32 102 12.9 19.3 0.00 0.00 0.00 40 1008.3
20260831012524 33 98 12.9 19.3 0.00 0.00 0.00 39 1008.4
20260831012025 33 112 11.3 19.3 0.00 0.00 0.00 38 1008.3
20260831011554 33 102 12.9 19.3 0.00 0.00 0.00 37 1008.4
20260831011024 33 113 11.3 29.0 0.00 0.00 0.00 37 1008.2
20260831010525 34 108 12.9 29.0 0.00 0.00 0.00 37 1008.2
20260831010058 34 128 12.9 29.0 0.00 0.00 0.00 36 1008.2
20260831005525 35 131 11.3 20.9 0.00 0.00 0.00 36 1008.2
20260831005028 35 98 14.5 22.5 0.00 0.00 0.00 35 1008.1
20260831004548 35 123 14.5 29.0 0.00 0.00 0.00 35 1008.1
20260831004024 35 107 16.1 29.0 0.00 0.00 0.00 35 1008.1
20260831003527 36 118 14.5 25.7 0.00 0.00 0.00 35 1008.1
20260831003045 36 112 12.9 25.7 0.00 0.00 0.00 34 1008.1
20260831002524 36 99 12.9 25.7 0.00 0.00 0.00 34 1008.1
20260831002024 36 123 16.1 32.2 0.00 0.00 0.00 34 1008.1
20260831001544 37 132 19.3 33.8 0.00 0.00 0.00 33 1008.1
20260831001025 37 127 22.5 33.8 0.00 0.00 0.00 33 1008.2
20260831000525 37 129 20.9 33.8 0.00 0.00 0.00 33 1008.1
20260831000045 37 120 22.5 41.8 0.00 0.00 0.00 32 1008.1
20260830235524 37 113 22.5 41.8 0.00 0.00 0.00 32 1008.1
20260830235024 37 106 17.7 37.0 0.00 0.00 0.00 32 1008.0
20260830234550 37 107 22.5 38.6 0.00 0.00 0.00 32 1008.1
20260830234026 38 121 22.5 43.5 0.00 0.00 0.00 32 1008.0
20260830233525 38 116 24.1 43.5 0.00 0.00 0.00 31 1007.9
20260830233044 38 98 19.3 35.4 0.00 0.00 0.00 31 1007.8
20260830232526 38 100 16.1 33.8 0.00 0.00 0.00 32 1007.9
20260830232025 38 150 20.9 41.8 0.00 0.00 0.00 31 1008.0
20260830231543 38 125 24.1 41.8 0.00 0.00 0.00 32 1007.9
20260830231024 38 114 19.3 41.8 0.00 0.00 0.00 31 1007.9
20260830230524 38 123 25.7 41.8 0.00 0.00 0.00 31 1007.9
20260830230047 39 134 19.3 33.8 0.00 0.00 0.00 31 1007.7
20260830225525 39 113 19.3 38.6 0.00 0.00 0.00 31 1007.7
20260830225024 39 134 22.5 38.6 0.00 0.00 0.00 31 1007.6
20260830224548 39 126 22.5 37.0 0.00 0.00 0.00 31 1007.6
20260830224025 39 131 22.5 46.7 0.00 0.00 0.00 31 1007.6
20260830223524 39 119 25.7 46.7 0.00 0.00 0.00 30 1007.7
20260830223045 39 132 22.5 43.5 0.00 0.00 0.00 30 1007.7
20260830222526 40 145 29.0 43.5 0.00 0.00 0.00 30 1007.6
20260830222024 40 114 20.9 38.6 0.00 0.00 0.00 30 1007.6
20260830221541 40 109 20.9 41.8 0.00 0.00 0.00 31 1007.6
20260830221028 40 123 20.9 41.8 0.00 0.00 0.00 30 1007.7
20260830220524 40 109 22.5 33.8 0.00 0.00 0.00 29 1007.7
20260830220049 40 118 22.5 38.6 0.00 0.00 0.00 29 1007.7
20260830215524 40 121 24.1 38.6 0.00 0.00 0.00 29 1007.7
20260830215025 40 138 17.7 38.6 0.00 0.00 0.00 29 1007.8
20260830214545 40 123 25.7 38.6 0.00 0.00 0.00 30 1007.7
20260830214025 40 122 20.9 46.7 0.00 0.00 0.00 30 1007.6
20260830213528 40 134 27.4 46.7 0.00 0.00 0.00 30 1007.7
20260830213101 40 118 25.7 46.7 0.00 0.00 0.00 30 1007.6
20260830212525 40 113 32.2 48.3 0.00 0.00 0.00 30 1007.6
20260830212024 40 74 30.6 48.3 0.00 0.00 0.00 31 1007.7
20260830211550 40 136 27.4 46.7 0.00 0.00 0.00 31 1007.8
20260830211025 40 113 30.6 46.7 0.00 0.00 0.00 30 1007.8
20260830210523 40 117 25.7 46.7 0.00 0.00 0.00 30 1008.0
20260830210046 40 124 29.0 46.7 0.00 0.00 0.00 30 1008.0
20260830205529 41 137 24.1 40.2 0.00 0.00 0.00 30 1008.1
20260830205025 41 121 19.3 49.9 0.00 0.00 0.00 30 1008.1
20260830204543 40 105 27.4 49.9 0.00 0.00 0.00 30 1008.2
20260830204025 40 134 29.0 46.7 0.00 0.00 0.00 30 1008.2
20260830203524 40 125 25.7 53.1 0.00 0.00 0.00 30 1008.3
20260830203050 40 126 27.4 53.1 0.00 0.00 0.00 31 1008.4
20260830202526 40 104 20.9 43.5 0.00 0.00 0.00 31 1008.5
20260830202025 40 133 22.5 43.5 0.00 0.00 0.00 30 1008.4
20260830201546 40 119 22.5 43.5 0.00 0.00 0.00 30 1008.5
20260830201025 40 125 29.0 43.5 0.00 0.00 0.00 30 1008.6
20260830200524 40 140 27.4 40.2 0.00 0.00 0.00 30 1008.7
20260830200045 40 115 24.1 41.8 0.00 0.00 0.00 31 1008.6
20260830195524 40 130 20.9 49.9 0.00 0.00 0.00 31 1008.7
20260830195025 40 165 27.4 49.9 0.00 0.00 0.00 30 1008.8
20260830194544 40 117 24.1 48.3 0.00 0.00 0.00 31 1008.9
20260830194024 40 139 25.7 48.3 0.00 0.00 0.00 31 1008.9
20260830193525 40 105 25.7 48.3 0.00 0.00 0.00 31 1008.9
20260830193047 40 137 24.1 41.8 0.00 0.00 0.00 32 1009.1
20260830192524 40 134 20.9 45.1 0.00 0.00 0.00 31 1009.1
20260830192024 40 148 25.7 46.7 0.00 0.00 0.00 32 1009.2
20260830191546 40 111 29.0 46.7 0.00 0.00 0.00 32 1009.1
20260830191024 39 139 25.7 46.7 0.00 0.00 0.00 33 1009.1
20260830190524 39 137 24.1 54.7 0.00 0.00 0.00 33 1009.2
20260830190044 39 107 30.6 54.7 0.00 0.00 0.00 34 1009.1
20260830185525 39 139 24.1 54.7 0.00 0.00 0.00 34 1009.3
20260830185025 39 113 24.1 49.9 0.00 0.00 0.00 34 1009.3
20260830184550 39 138 27.4 53.1 0.00 0.00 0.00 33 1009.3
20260830184024 39 157 20.9 53.1 0.00 0.00 0.00 34 1009.4
20260830183526 39 132 20.9 43.5 0.00 0.00 0.00 35 1009.4
20260830183047 38 122 25.7 43.5 0.00 0.00 0.00 35 1009.4
20260830182532 38 146 24.1 48.3 0.00 0.00 0.00 35 1009.5